Retour au catalogue

STARLINK-32942

ActifCommunicationsVLEO
NORAD 63120·PAYLOAD·🇺🇸 United States

Lancé Feb 27, 2025 depuis Cape Canaveral Space Force Station

Loading…

Prochains Passages (prochaines 24 heures)

TLE

FraisSource: CelesTrak SupGP

Époque: Sep 15, 2026, 02:42 UTC

1 63120C 25039S   26258.11298611 -.00002169  00000+0 -78554-4 0  2583
2 63120  43.0040  22.9356 0001945 269.2118 230.0408 15.27584422    18

Suivez STARLINK-32942 en temps réel avec AllMySat

Download on the App Store